Flag for U.S.A. Weather past 2 weeks in Columbia, South Carolina, U.S.A.

Now
77 °F

Clear.


Feels Like: 79 °F
Forecast: 75 / 98 °F
Wind: No wind

Location: Columbia Owens Downtown Airport

Current Time: Aug 21, 2014 at 4:19:33 AM

Latest Report: Aug 21, 2014 at 3:53 AM


Visibility: 10 mi

Pressure: 29.99 "Hg

Humidity: 82%

Dew point: 71 °F

Location of ColumbiaLocation

Historic Weather in Columbia — Graph

°F

Columbia temperature yesterday

Maximum temperature yesterday: 96 °F (at 5:53 PM)
Minimum temperature yesterday: 73 °F (at 6:53 AM)
Average temperature yesterday: 84 °F

Past Weeks' High & Low Weather Summary

 TemperatureHumidityPressure
High96 °F (Aug 20, 5:53 PM)94% (Aug 9, 1:53 AM)30.09 "Hg (Aug 9, 1:53 AM)
Low67 °F (Aug 14, 6:53 AM)29% (Aug 13, 1:53 PM)29.79 "Hg (Aug 12, 4:53 PM)
Average81 °F69%29.97 "Hg
* Reported Aug 6 2:53 AM — Aug 21 2:53 AM, Columbia, Weather by CustomWeather, © 2014

Note: Actual official high and low records may vary slightly from our data, if they occured in-between our weather recording intervals... More about our weather records

Advertising

Columbia weather history for previous 24 hours

 ConditionsComfort  
Time TempWeatherWind HumidityBarometerVisibility
2:53 AM
Aug 21
79 °FClear.No wind74%30.01 "Hg10 mi
1:53 AM83 °FClear.No wind65%30.02 "Hg10 mi
11:53 PM
Aug 20
84 °FClear.5 mph63%30.03 "Hg10 mi
10:53 PM87 °FPassing clouds.5 mph55%30.03 "Hg10 mi
9:53 PM86 °FClear.6 mph59%30.01 "Hg10 mi
8:53 PM86 °FSunny.No wind61%29.98 "Hg10 mi
7:53 PM88 °FSunny.No wind54%29.97 "Hg10 mi
6:53 PM94 °FSunny.5 mph38%29.96 "Hg10 mi
5:53 PM96 °FSunny.7 mph36%29.96 "Hg10 mi
4:53 PM95 °FSunny.7 mph36%29.95 "Hg10 mi
3:53 PM94 °FPassing clouds.8 mph40%29.96 "Hg10 mi
2:53 PM93 °FPartly sunny.3 mph44%29.98 "Hg10 mi
1:53 PM92 °FSunny.5 mph49%29.99 "Hg10 mi
12:53 PM91 °FPassing clouds.6 mph52%30.00 "Hg10 mi
11:53 AM88 °FSunny.No wind55%30.01 "Hg10 mi
10:53 AM85 °FSunny.6 mph63%30.01 "Hg10 mi
9:53 AM82 °FSunny.3 mph70%29.99 "Hg10 mi
8:53 AM78 °FSunny.3 mph79%29.98 "Hg9 mi
7:53 AM75 °FSunny.No wind88%29.95 "Hg8 mi
6:53 AM73 °FClear.No wind90%29.94 "Hg7 mi
5:53 AM74 °FClear.3 mph88%29.92 "Hg10 mi
4:53 AM75 °FClear.No wind85%29.90 "Hg10 mi
Weather by CustomWeather, © 2014

See weather overviewHow to use our weather pages